Time,TemperatureF,DewpointF,PressureIn,WindDirection,WindDirectionDegrees,WindSpeedMPH,WindSpeedGustMPH,Humidity,HourlyPrecipIn,Conditions,Clouds,dailyrainin,SolarRadiationWatts/m^2,SoftwareType,DateUTC
2017-10-21 00:15:00,56.8,53.0,30.14,NW,321,1.0,2.0,87,0.00,CLR,,0.00,0.0,WeatherDisplay:10.37,2017-10-21 04:15:00,
2017-10-21 00:45:00,56.4,52.9,30.14,NW,321,1.0,2.0,88,0.00,CLR,,0.00,0.0,WeatherDisplay:10.37,2017-10-21 04:45:00,
2017-10-21 01:15:00,55.8,52.3,30.14,NW,321,1.0,2.0,88,0.00,CLR,,0.00,0.0,WeatherDisplay:10.37,2017-10-21 05:15:00,
2017-10-21 01:45:00,55.2,52.0,30.14,NW,321,1.0,2.0,89,0.00,CLR,,0.00,0.0,WeatherDisplay:10.37,2017-10-21 05:45:00,
2017-10-21 02:15:00,55.2,52.0,30.14,NW,321,1.0,2.0,89,0.00,CLR,,0.00,0.0,WeatherDisplay:10.37,2017-10-21 06:15:00,
2017-10-21 02:45:00,54.9,51.7,30.13,WNW,300,1.0,2.0,89,0.00,CLR,,0.00,0.0,WeatherDisplay:10.37,2017-10-21 06:45:00,
2017-10-21 03:15:00,54.8,51.6,30.12,West,268,1.0,2.0,89,0.00,CLR,,0.00,0.0,WeatherDisplay:10.37,2017-10-21 07:15:00,
2017-10-21 03:45:00,54.3,51.1,30.12,West,268,0.0,2.0,89,0.00,CLR,,0.00,0.0,WeatherDisplay:10.37,2017-10-21 07:45:00,
2017-10-21 04:15:00,53.9,50.8,30.12,West,269,0.0,2.0,89,0.00,CLR,,0.00,0.0,WeatherDisplay:10.37,2017-10-21 08:15:00,
2017-10-21 04:45:00,53.7,50.8,30.13,West,270,1.0,2.0,90,0.00,CLR,,0.00,0.0,WeatherDisplay:10.37,2017-10-21 08:45:00,
2017-10-21 05:15:00,53.1,50.2,30.14,West,263,0.0,0.0,90,0.00,CLR,,0.00,0.0,WeatherDisplay:10.37,2017-10-21 09:15:00,
2017-10-21 05:45:00,52.5,49.6,30.14,West,263,0.0,1.0,90,0.00,CLR,,0.00,0.0,WeatherDisplay:10.37,2017-10-21 09:45:00,
2017-10-21 06:15:00,52.1,49.3,30.15,West,263,0.0,1.0,90,0.00,CLR,,0.00,0.0,WeatherDisplay:10.37,2017-10-21 10:15:00,
2017-10-21 06:45:00,51.9,49.1,30.15,West,263,0.0,1.0,90,0.00,CLR,,0.00,0.0,WeatherDisplay:10.37,2017-10-21 10:45:00,
2017-10-21 07:15:00,51.8,48.9,30.17,West,263,0.0,1.0,90,0.00,CLR,,0.00,0.0,WeatherDisplay:10.37,2017-10-21 11:15:00,
2017-10-21 07:45:00,51.9,49.4,30.16,West,263,0.0,2.0,91,0.00,OVC,,0.00,7.0,WeatherDisplay:10.37,2017-10-21 11:45:00,
2017-10-21 08:15:00,52.5,49.9,30.17,West,263,0.0,2.0,91,0.00,OVC,,0.00,23.0,WeatherDisplay:10.37,2017-10-21 12:15:00,
2017-10-21 08:45:00,53.0,50.5,30.18,West,263,0.0,3.0,91,0.00,OVC,,0.00,42.0,WeatherDisplay:10.37,2017-10-21 12:45:00,
2017-10-21 09:15:00,54.1,51.5,30.19,West,261,1.0,3.0,91,0.00,OVC,,0.00,51.0,WeatherDisplay:10.37,2017-10-21 13:15:00,
2017-10-21 09:45:00,56.8,54.2,30.19,WSW,247,1.0,3.0,91,0.00,OVC,,0.00,183.0,WeatherDisplay:10.37,2017-10-21 13:45:00,
2017-10-21 10:15:00,61.9,57.0,30.19,North,351,1.0,5.0,84,0.00,OVC,,0.00,118.0,WeatherDisplay:10.37,2017-10-21 14:15:00,
2017-10-21 10:45:00,65.8,55.4,30.19,NNE,13,1.0,6.0,69,0.00,OVC,,0.00,457.0,WeatherDisplay:10.37,2017-10-21 14:45:00,
2017-10-21 11:15:00,67.5,55.3,30.19,North,357,1.0,7.0,65,0.00,OVC,,0.00,531.0,WeatherDisplay:10.37,2017-10-21 15:15:00,
2017-10-21 11:45:00,68.7,55.6,30.19,North,6,1.0,5.0,63,0.00,OVC,,0.00,439.0,WeatherDisplay:10.37,2017-10-21 15:45:00,
2017-10-21 12:15:00,69.2,55.6,30.19,NNE,23,1.0,5.0,62,0.00,OVC,,0.00,413.0,WeatherDisplay:10.37,2017-10-21 16:15:00,
2017-10-21 12:45:00,70.2,55.7,30.18,NNE,32,2.0,6.0,60,0.00,OVC,,0.00,388.0,WeatherDisplay:10.37,2017-10-21 16:45:00,
2017-10-21 13:15:00,70.8,51.8,30.18,NNE,31,3.0,12.0,51,0.00,CLR,,0.00,306.0,WeatherDisplay:10.37,2017-10-21 17:15:00,
2017-10-21 13:45:00,71.4,51.8,30.17,NNE,21,1.0,7.0,50,0.00,CLR,,0.00,325.0,WeatherDisplay:10.37,2017-10-21 17:45:00,
2017-10-21 14:15:00,71.5,50.8,30.16,NE,51,2.0,7.0,48,0.00,CLR,,0.00,315.0,WeatherDisplay:10.37,2017-10-21 18:15:00,
2017-10-21 14:45:00,71.4,51.8,30.15,NNE,32,2.0,5.0,50,0.00,CLR,,0.00,341.0,WeatherDisplay:10.37,2017-10-21 18:45:00,
2017-10-21 15:15:00,72.5,52.8,30.15,NE,49,2.0,5.0,50,0.00,CLR,,0.00,355.0,WeatherDisplay:10.37,2017-10-21 19:15:00,
2017-10-21 15:45:00,72.9,52.1,30.15,NNE,17,2.0,8.0,48,0.00,CLR,,0.00,439.0,WeatherDisplay:10.37,2017-10-21 19:45:00,
2017-10-21 16:15:00,73.3,51.8,30.15,NNE,31,1.0,5.0,47,0.00,SCT,,0.00,364.0,WeatherDisplay:10.37,2017-10-21 20:15:00,
2017-10-21 16:45:00,72.9,51.5,30.14,NNE,24,1.0,6.0,47,0.00,BKN,,0.00,276.0,WeatherDisplay:10.37,2017-10-21 20:45:00,
2017-10-21 17:15:00,71.5,52.4,30.14,NNW,334,0.0,2.0,51,0.00,OVC,,0.00,134.0,WeatherDisplay:10.37,2017-10-21 21:15:00,
2017-10-21 17:45:00,72.3,53.2,30.14,WSW,239,1.0,4.0,51,0.00,OVC,,0.00,185.0,WeatherDisplay:10.37,2017-10-21 21:45:00,
2017-10-21 18:15:00,68.8,53.9,30.14,NW,317,0.0,2.0,59,0.00,OVC,,0.00,32.0,WeatherDisplay:10.37,2017-10-21 22:15:00,
2017-10-21 18:45:00,65.0,54.2,30.14,NW,305,0.0,0.0,68,0.00,OVC,,0.00,14.0,WeatherDisplay:10.37,2017-10-21 22:45:00,
2017-10-21 19:15:00,63.5,54.3,30.14,NW,307,0.0,0.0,72,0.00,CLR,,0.00,0.0,WeatherDisplay:10.37,2017-10-21 23:15:00,
2017-10-21 19:45:00,63.0,54.2,30.15,NW,307,0.0,0.0,73,0.00,CLR,,0.00,0.0,WeatherDisplay:10.37,2017-10-21 23:45:00,
2017-10-21 20:15:00,61.8,53.8,30.16,NW,307,0.0,0.0,75,0.00,CLR,,0.00,0.0,WeatherDisplay:10.37,2017-10-22 00:15:00,
2017-10-21 20:45:00,60.7,53.4,30.15,NW,307,0.0,0.0,77,0.00,CLR,,0.00,0.0,WeatherDisplay:10.37,2017-10-22 00:45:00,
2017-10-21 21:15:00,60.3,53.1,30.15,NW,307,0.0,0.0,77,0.00,CLR,,0.00,0.0,WeatherDisplay:10.37,2017-10-22 01:15:00,
2017-10-21 21:45:00,60.1,52.8,30.15,NW,308,0.0,0.0,77,0.00,CLR,,0.00,0.0,WeatherDisplay:10.37,2017-10-22 01:45:00,